Theta_e
336 335 336 335 333 331 331 330 329 328 326 325 323 322 322 321 320 320 320 319 319 318 317 316 315 315 314 314 313 314 313 314 314 314 313 312 312 312 311 310 308 308 308 308 309 308 307 307 308 309 309 309 309 309 309 308 309 310 308 306 305 306 304 302 299 300 303 306 306 304 305 303 301 302 301 300 301 302 305 304 306 305 304 304 304
336 336 336 334 333 332 330 329 329 327 325 324 323 322 321 320 320 319 319 319 319 317 316 316 316 314 312 312 313 313 313 312 313 313 311 311 311 313 311 309 308 308 309 307 308 310 309 306 307 308 309 308 308 306 307 307 307 306 305 307 304 306 306 304 301 300 298 303 304 304 302 304 300 302 300 299 300 302 302 303 305 305 304 304 303
336 336 335 333 332 331 329 328 327 326 324 324 322 321 321 320 319 319 319 319 319 318 317 316 315 313 312 312 312 312 312 312 313 312 311 310 309 310 311 310 309 308 307 307 306 308 308 308 308 309 312 308 308 309 309 307 307 306 305 306 305 305 306 306 303 300 300 300 303 300 301 302 300 300 300 300 301 302 301 302 304 305 306 304 304
336 335 334 332 332 330 329 328 327 326 324 323 322 321 320 320 320 319 319 319 317 317 317 315 315 312 312 312 312 311 311 312 312 310 310 310 309 309 309 309 309 308 307 306 307 307 307 307 308 308 308 307 306 307 307 307 306 305 305 305 304 304 305 306 305 302 301 300 301 299 301 299 300 301 301 300 299 300 301 302 304 304 304 305 305
334 333 333 332 330 329 328 327 326 325 323 322 321 321 321 320 320 319 318 318 317 316 316 315 314 312 312 311 310 310 311 311 310 311 311 311 309 309 308 308 308 308 308 308 310 307 308 307 307 308 308 307 307 307 307 306 305 304 303 303 302 304 305 306 305 304 301 300 300 301 301 300 301 300 300 298 298 299 300 301 302 303 303 304 306
334 331 331 330 329 328 327 327 325 324 322 322 321 321 321 320 320 319 317 317 317 316 315 314 313 311 311 311 311 311 311 310 310 309 309 310 310 310 310 309 308 307 307 307 307 308 307 307 307 307 307 307 307 308 307 305 304 303 303 302 301 302 303 304 303 302 302 301 299 298 299 299 298 298 299 298 297 297 298 300 302 303 302 302 304
332 330 330 328 327 327 326 326 325 322 321 321 322 321 321 320 319 317 318 317 316 315 315 314 313 311 310 311 311 311 310 310 309 309 309 309 310 309 309 308 308 308 307 307 307 307 306 306 306 306 304 304 305 304 306 307 305 302 302 301 302 302 301 301 301 300 301 300 299 298 297 299 298 296 298 299 298 298 297 297 298 301 301 301 302
331 329 328 327 326 326 326 326 324 322 322 321 321 321 321 321 319 318 318 317 316 314 314 313 312 311 311 311 310 310 310 309 309 309 309 310 309 308 308 308 307 308 307 307 307 305 304 302 301 300 300 300 301 301 301 302 304 300 300 300 300 300 299 299 299 297 298 300 297 296 296 296 296 297 299 297 295 296 298 298 297 298 299 300 301
329 328 327 326 326 326 326 325 323 322 321 320 320 321 320 320 320 318 317 317 317 315 315 313 311 310 310 311 310 310 310 309 310 309 309 309 309 307 307 307 307 306 306 305 305 303 301 300 299 300 301 301 301 300 300 303 302 299 298 298 299 298 298 298 298 296 297 299 296 298 295 294 295 295 294 294 294 294 296 298 298 299 299 299 300
329 327 326 326 326 326 325 323 321 320 320 320 320 320 320 320 319 318 317 316 316 315 314 312 310 310 309 309 310 311 310 311 311 308 309 309 308 307 308 307 307 306 305 304 303 301 299 298 301 303 302 302 301 297 296 297 301 301 299 298 297 297 296 296 296 296 297 297 296 295 293 293 293 294 294 294 296 296 296 296 296 298 297 297 299
328 327 326 326 326 324 323 321 320 319 319 319 319 319 319 320 319 317 316 316 315 315 313 310 310 309 309 309 309 310 311 307 300 299 301 304 309 308 307 307 307 306 305 302 299 298 297 298 300 302 303 301 300 295 295 294 294 294 295 298 301 298 296 295 294 296 296 297 298 295 293 293 294 295 294 295 295 295 295 296 297 297 295 294 293
328 327 327 326 325 323 322 320 319 319 319 318 318 318 318 318 317 317 316 316 315 314 313 311 311 310 310 309 310 310 305 299 295 295 295 296 304 308 308 307 307 306 304 302 300 299 298 301 303 304 303 302 300 298 299 296 294 293 293 293 292 293 294 297 295 294 295 295 296 295 294 293 293 294 294 295 294 294 295 295 296 296 295 294 295
327 327 326 325 324 324 323 320 319 319 318 318 317 318 317 317 317 316 315 316 315 313 311 311 310 311 310 309 309 306 302 295 294 294 294 293 293 305 307 307 306 306 305 303 303 302 303 304 304 305 305 306 306 300 298 298 297 295 295 296 295 293 290 290 293 297 297 296 296 295 294 294 293 294 296 296 297 294 294 294 294 296 296 295 295
327 326 325 324 323 323 322 321 319 318 318 317 317 317 317 316 316 316 315 315 314 313 312 311 311 311 310 309 308 305 303 296 294 294 293 292 291 300 307 308 307 307 306 306 305 304 303 302 301 302 303 304 301 300 304 303 299 297 297 296 296 299 296 292 291 291 296 298 296 295 297 298 295 296 299 298 297 295 294 293 295 295 295 295 298
327 326 325 324 323 322 321 320 319 318 317 316 316 316 316 316 316 316 314 313 313 312 311 310 310 310 310 310 307 304 303 294 294 293 293 293 293 298 309 310 308 307 307 306 305 304 304 305 304 303 301 297 297 297 299 299 301 304 300 297 298 300 299 298 297 299 300 301 299 298 298 300 299 299 299 299 298 298 297 296 297 297 297 298 297
326 325 324 324 323 322 321 320 319 317 316 316 316 315 316 317 316 316 314 314 313 313 312 311 310 310 310 310 306 303 301 293 294 293 293 293 295 310 308 306 306 305 305 306 307 306 307 306 304 302 300 297 296 291 292 293 297 301 304 303 302 303 302 306 300 300 302 301 300 299 300 301 299 299 298 297 297 296 297 298 298 297 295 295 294
324 324 323 323 322 321 320 318 316 316 315 315 315 315 316 316 316 315 313 313 312 312 311 310 310 310 310 309 304 302 299 295 293 293 293 292 298 309 306 304 304 304 304 305 304 305 306 305 306 303 299 297 292 289 290 292 297 301 303 303 304 302 303 306 297 294 295 294 294 294 294 293 293 293 293 293 293 294 294 294 294 294 293 292 293
324 323 323 322 321 320 319 316 315 314 315 314 315 316 316 316 316 314 313 313 311 311 311 310 310 310 309 307 303 300 299 296 293 293 293 292 299 308 304 304 303 303 303 304 304 304 304 307 304 304 298 295 289 290 289 295 299 303 303 302 301 300 298 299 302 305 295 293 293 293 293 293 293 293 293 293 293 294 294 293 295 294 293 293 291
322 323 322 322 321 319 318 316 315 315 314 315 316 316 316 315 315 315 314 313 312 311 310 309 309 309 309 305 304 301 299 296 293 293 293 292 297 305 305 303 302 302 301 302 304 302 301 301 302 300 298 294 287 289 289 293 299 304 302 301 300 298 296 296 296 296 298 298 299 302 300 299 300 298 300 298 295 298 296 298 297 294 292 293 293
322 321 321 321 320 318 318 317 316 315 315 316 316 316 316 315 314 313 313 313 311 311 309 308 307 307 303 301 301 301 299 297 295 293 293 292 293 303 303 306 301 301 300 300 302 298 299 297 295 289 289 289 289 287 289 288 295 300 302 299 297 298 295 293 295 296 296 298 298 300 301 303 302 302 302 300 303 302 299 299 298 298 296 293 294
320 320 319 319 319 318 318 317 317 317 317 316 316 315 315 313 312 312 312 312 311 311 310 308 306 303 303 302 302 301 300 298 296 291 292 292 292 294 301 303 303 301 301 300 301 299 296 296 295 290 289 289 290 289 288 289 289 295 301 297 296 296 291 292 295 298 296 297 300 300 301 300 300 300 299 298 299 299 300 300 299 299 298 296 293
318 317 316 317 317 317 317 318 318 318 318 317 315 314 315 314 312 310 308 307 306 305 305 305 305 304 303 303 303 302 301 300 297 292 291 292 291 291 298 304 300 304 300 299 299 300 298 297 295 291 289 288 289 289 289 289 288 297 298 288 287 288 292 293 293 293 295 298 298 297 299 298 297 299 298 298 299 300 300 299 299 299 301 299 296
318 317 316 316 315 316 317 316 316 317 317 315 313 311 310 309 309 309 308 306 305 304 304 304 303 303 303 303 303 303 301 299 296 295 292 291 291 291 291 295 293 301 303 302 300 300 301 299 296 292 289 289 289 288 289 289 290 295 287 287 288 288 290 292 293 295 295 297 299 299 298 298 298 297 297 297 298 299 300 299 300 300 300 301 300
318 317 316 315 315 315 315 315 316 316 315 313 312 309 309 309 308 308 307 305 304 303 303 303 303 302 301 301 302 302 301 299 296 294 294 291 291 291 291 290 290 297 299 300 295 298 301 296 294 289 289 289 288 289 289 289 292 291 288 289 288 289 292 292 293 295 296 297 298 298 298 298 297 297 297 298 298 299 302 301 300 300 301 301 301
315 314 314 314 314 314 314 314 314 315 315 313 311 309 309 308 307 307 307 305 304 303 303 303 302 301 301 301 301 302 301 299 298 295 293 293 291 290 290 290 291 290 301 300 297 294 292 291 289 289 289 289 289 289 289 289 288 288 288 288 291 292 293 294 295 298 298 297 297 298 297 297 298 299 299 299 300 301 299 301 300 300 301 301 301
314 313 313 313 313 314 313 313 313 314 314 312 311 311 309 308 307 306 306 305 305 304 302 301 301 301 301 302 301 301 301 299 299 297 295 295 293 290 290 290 292 292 293 297 290 289 289 289 289 289 289 289 292 293 294 295 292 290 289 290 293 293 294 295 297 298 296 296 296 296 297 298 298 299 300 300 299 297 297 298 297 296 298 298 298
313 313 312 313 313 313 312 311 311 311 311 311 311 311 311 310 308 305 305 304 303 302 302 301 300 300 300 300 301 301 301 299 299 298 297 296 296 295 293 294 293 292 294 298 292 293 290 292 291 291 292 291 292 294 293 294 296 296 293 293 294 294 295 296 299 298 297 297 296 297 297 298 299 298 298 297 297 297 297 297 296 295 297 296 296
314 313 312 312 311 311 310 301 306 309 308 308 308 308 307 307 305 303 303 302 302 302 302 301 300 300 300 300 301 301 301 301 301 298 297 297 296 297 297 297 297 297 297 299 300 301 295 293 293 295 297 295 295 295 294 295 294 295 297 297 296 296 298 298 298 297 298 298 298 299 297 299 297 296 296 297 297 296 297 296 297 296 296 296 294
312 310 309 310 309 309 308 308 308 307 307 307 307 307 306 306 305 305 306 305 305 304 303 303 302 302 302 301 301 300 300 301 303 296 298 294 295 297 297 297 298 299 299 296 301 302 299 296 296 296 295 293 291 295 294 294 294 296 298 297 297 297 297 296 295 294 295 296 298 298 295 296 296 296 295 295 296 295 296 296 297 297 296 296 294
311 309 309 308 308 308 307 307 308 307 307 306 306 302 290 293 300 306 306 299 297 299 300 306 307 305 304 304 304 302 301 304 297 295 295 294 294 295 295 295 295 298 297 293 296 299 299 297 298 294 295 294 293 292 293 295 294 294 296 294 296 297 298 297 297 297 300 298 297 295 296 295 296 296 295 295 295 296 296 294 296 297 295 294 293
310 310 309 308 306 307 307 307 308 308 307 307 306 303 302 299 290 290 295 292 291 289 289 289 291 294 307 306 304 297 299 297 294 295 294 294 294 294 293 293 293 294 293 294 294 293 292 292 293 295 294 295 293 293 293 293 293 293 296 298 298 297 293 297 296 296 297 293 295 296 295 296 295 296 294 296 296 296 297 296 296 296 295 294 293
311 310 309 308 305 306 307 307 307 307 306 307 305 303 301 299 296 291 290 290 290 290 290 290 291 292 295 299 301 299 294 294 293 294 294 294 293 292 292 292 293 293 291 293 292 291 292 292 293 295 296 295 293 292 296 297 296 295 295 293 293 294 295 294 296 298 294 295 293 292 293 292 294 293 294 293 290 294 296 293 295 295 294 295 294
311 310 310 307 306 305 305 306 306 306 306 305 305 303 301 300 298 295 293 290 289 290 290 291 291 292 292 292 293 294 292 292 292 293 292 291 290 289 289 290 290 291 291 292 291 290 292 296 296 297 297 294 297 297 297 297 297 297 297 297 292 294 296 297 294 299 295 295 293 292 292 292 291 291 290 291 291 291 292 293 294 294 294 292 290
311 310 308 307 307 306 306 306 305 305 306 306 306 304 303 302 300 297 295 294 294 292 290 290 290 290 290 291 291 291 291 290 290 290 289 289 289 289 290 289 289 290 292 294 293 291 295 295 294 294 295 295 297 296 295 297 296 296 296 297 297 299 298 300 299 295 292 293 292 292 291 293 292 292 291 291 292 293 291 291 293 292 290 291 293
311 302 295 300 308 306 307 306 306 306 306 306 306 304 304 303 301 298 298 296 296 296 295 294 291 291 291 290 289 289 289 289 289 289 289 289 289 290 291 295 291 292 294 297 297 296 295 293 293 294 295 296 296 296 297 300 298 297 296 298 298 299 297 295 294 297 295 295 293 294 292 293 293 292 291 290 290 290 291 291 292 293 292 292 292
312 308 306 305 307 307 307 307 307 308 307 307 308 306 304 302 300 300 299 298 298 298 297 294 291 289 289 289 289 289 289 289 290 289 289 289 290 292 291 290 290 291 291 294 293 294 293 294 294 294 295 296 297 297 298 299 301 299 300 299 294 295 295 294 292 293 296 295 292 292 292 292 291 291 291 292 295 293 292 292 291 291 292 292 290
311 308 308 308 308 308 308 308 308 308 302 305 305 306 304 302 300 301 301 299 298 298 297 292 292 292 291 291 289 289 289 289 289 289 290 290 290 292 294 292 291 291 290 292 292 292 292 293 293 294 295 296 297 298 298 300 300 301 298 297 297 297 295 295 293 291 292 292 291 292 292 291 291 291 291 291 291 290 290 291 290 290 289 290 289
310 309 309 310 309 309 308 308 306 299 303 306 306 306 303 302 302 300 299 299 298 298 297 293 292 292 291 291 292 290 288 288 288 288 288 288 288 289 292 292 292 291 291 292 292 293 292 293 294 294 294 295 296 297 296 298 299 299 298 299 296 292 293 293 292 294 292 292 290 290 290 291 291 291 290 289 289 289 290 290 290 290 289 290 289
311 300 296 298 301 308 308 305 304 305 305 306 306 302 299 300 301 299 299 298 296 296 294 295 294 293 293 292 291 290 289 289 288 287 287 288 289 290 291 292 292 292 293 293 294 293 294 294 294 294 295 296 296 296 296 297 298 297 298 294 294 294 293 292 292 291 291 290 290 290 290 290 289 289 290 289 289 289 289 289 290 290 290 290 289
307 305 299 296 303 304 304 302 305 305 302 304 305 303 300 298 298 297 298 297 296 295 295 294 294 294 295 292 291 291 291 290 290 289 288 288 288 290 291 291 292 293 292 293 294 294 295 295 296 296 296 297 296 296 297 298 298 294 294 293 291 291 292 292 291 291 290 289 289 289 291 291 290 290 289 290 289 289 290 290 290 290 290 289 288
308 306 298 299 302 306 304 303 305 305 304 304 304 302 301 300 299 297 299 297 296 296 297 296 296 297 296 291 290 290 292 292 292 292 291 290 290 291 291 292 292 293 293 293 293 294 294 294 294 294 295 296 296 296 298 297 295 292 292 291 291 290 290 290 290 290 290 290 291 290 289 290 290 289 289 289 291 291 290 290 290 290 289 289 289
308 305 305 305 307 306 305 302 303 300 302 303 304 303 300 300 300 300 297 296 295 296 298 298 298 298 293 290 289 290 293 294 294 293 293 293 293 293 293 294 294 295 294 294 294 295 294 293 294 294 293 292 293 293 293 293 293 292 292 292 291 290 289 289 290 290 290 290 290 289 288 289 289 289 289 291 289 289 290 289 289 289 289 289 289
308 307 307 307 307 306 304 304 304 304 303 303 303 298 299 301 303 301 300 298 298 297 297 297 298 297 293 289 289 289 295 295 292 295 295 295 294 293 294 294 295 296 296 296 296 296 294 292 291 292 291 292 296 292 292 291 292 291 292 292 291 291 291 290 290 290 290 289 289 289 289 289 289 289 289 289 289 289 289 289 289 289 288 288 288
305 306 307 304 305 304 305 304 303 303 303 300 300 299 302 302 302 302 301 300 299 299 299 300 299 297 294 290 289 291 295 296 296 296 297 295 295 295 295 296 296 296 297 296 297 297 295 292 290 292 295 295 299 301 298 297 296 293 293 292 291 289 290 289 289 289 289 289 289 289 289 289 289 289 289 289 289 289 289 288 288 288 288 288 288
304 304 303 303 303 303 302 301 301 300 296 297 301 302 299 303 302 301 300 300 297 298 299 298 298 296 294 293 293 294 296 297 295 296 297 297 296 296 296 296 297 297 296 296 297 297 295 291 292 292 294 295 296 297 298 298 298 294 292 289 289 288 288 288 288 289 289 288 288 288 289 288 288 288 288 288 288 288 288 287 287 287 287 287 287
302 302 301 301 300 300 300 301 297 299 299 300 300 301 301 302 302 301 299 300 299 298 297 297 297 296 295 295 295 294 296 298 298 297 297 297 296 296 296 296 296 296 294 292 294 296 293 293 291 290 290 293 297 296 296 293 290 290 289 289 288 287 287 288 289 287 287 287 287 287 288 288 288 288 288 287 287 287 286 287 286 287 286 286 286
302 301 300 300 300 299 299 300 299 300 300 300 301 300 301 301 301 298 296 300 298 296 298 297 297 296 297 296 296 296 296 297 296 296 297 297 296 296 295 295 294 294 293 294 295 293 291 292 291 292 291 292 295 297 291 289 287 285 285 284 284 283 283 285 287 286 285 286 287 287 287 288 287 287 287 287 286 286 286 286 286 285 285 284 283
301 300 300 299 300 300 300 300 299 295 300 300 300 299 297 298 299 298 298 297 297 297 297 296 297 296 296 296 295 296 296 296 296 296 295 295 296 296 295 295 292 292 292 294 293 293 292 292 293 292 291 289 288 289 288 287 285 283 282 281 281 281 281 283 284 284 284 285 287 287 287 287 286 286 286 285 285 286 285 285 284 284 283 282 282
302 301 300 300 299 299 298 298 299 299 299 298 297 297 296 298 297 297 296 296 296 297 297 297 297 296 295 295 295 295 295 294 295 295 294 295 296 296 296 295 293 296 294 293 293 293 293 293 291 289 289 288 287 286 285 284 282 282 281 280 280 280 280 282 282 282 282 285 285 287 287 286 285 285 285 285 285 285 283 282 281 281 282 281 282
301 299 299 299 298 299 299 298 298 299 298 298 297 296 296 296 296 296 295 296 297 297 297 296 296 296 296 295 295 295 294 294 295 295 295 295 295 296 295 298 298 297 295 294 293 292 291 289 288 287 286 285 284 283 282 281 280 280 280 279 279 279 279 280 281 281 282 283 284 285 286 285 285 285 285 285 283 282 281 280 281 282 281 281 281
300 300 299 299 299 298 298 298 298 298 298 297 296 295 295 295 295 295 295 295 295 295 295 296 297 296 296 296 294 295 295 296 296 296 296 296 296 298 300 298 297 296 294 293 292 290 289 287 286 285 284 283 282 280 279 278 278 278 278 278 278 278 279 279 280 280 281 282 283 285 285 285 284 284 283 281 281 280 281 281 281 280 281 281 282
Wind_Speed
12 12 11 12 12 11 11 10 11 10 11 9 9 8 8 8 7 7 6 6 6 7 7 7 7 6 7 6 6 5 5 4 4 4 4 5 5 4 4 5 5 4 4 4 4 4 5 5 3 3 4 3 3 3 3 2 2 2 3 4 4 3 4 4 4 4 3 4 4 4 4 6 5 7 8 8 9 10 10 6 7 5 5 6 7
12 12 11 11 12 11 11 10 10 10 10 10 9 10 8 8 8 8 6 6 6 7 7 6 6 7 7 7 6 6 5 5 4 4 5 5 4 3 4 5 4 4 4 4 4 4 4 4 4 3 3 4 4 4 4 3 2 2 2 3 4 3 3 3 3 3 4 4 4 4 4 4 5 7 8 9 8 9 9 9 8 6 6 6 6
11 11 11 12 12 11 12 10 10 12 11 9 9 10 9 8 8 8 7 7 6 6 6 6 6 7 7 6 6 6 5 5 4 4 5 5 5 4 4 4 4 4 4 4 5 4 4 3 3 2 2 3 3 3 3 3 3 3 3 3 3 3 3 3 2 3 3 4 3 4 4 4 5 8 9 8 8 8 8 8 10 7 8 8 7
11 11 12 12 12 11 11 11 12 12 11 8 10 10 10 8 8 7 7 6 7 6 6 7 6 7 7 7 7 6 6 5 5 5 6 5 5 5 5 4 4 4 4 5 4 4 4 4 3 3 3 4 4 3 3 3 3 4 4 3 4 4 4 2 2 1 2 3 3 4 4 5 4 7 7 8 9 8 7 7 8 7 7 8 8
11 11 11 13 13 12 11 11 12 12 11 9 11 11 10 9 8 9 8 7 7 7 6 6 7 7 7 8 8 7 6 6 6 5 5 4 5 5 5 4 4 4 4 4 5 4 3 3 3 3 3 3 4 3 2 3 3 4 4 4 4 4 4 3 3 3 3 3 3 4 5 4 4 4 6 8 9 9 8 8 8 7 7 8 7
12 11 11 12 12 12 12 12 12 12 11 11 12 11 10 9 9 7 8 9 8 7 7 6 7 8 7 8 7 7 7 7 7 6 6 5 5 4 4 4 4 5 4 4 4 4 3 3 3 3 4 3 3 2 1 3 3 4 4 4 4 4 4 4 4 4 4 2 4 5 4 5 5 4 7 8 8 9 9 8 7 6 7 8 7
13 12 11 12 11 11 11 11 12 11 11 11 10 10 10 9 9 9 8 8 8 7 7 7 6 7 8 7 8 8 7 7 6 6 6 6 4 5 5 5 5 4 4 5 4 4 4 4 5 6 6 5 5 5 5 4 3 5 5 4 4 4 5 5 4 5 5 3 3 4 4 4 4 6 7 7 7 6 8 9 9 7 6 8 8
12 12 13 12 11 12 11 11 11 11 11 11 11 10 9 9 8 8 8 9 8 8 8 7 6 7 7 7 7 7 7 7 7 7 6 5 5 5 5 5 4 4 5 5 5 5 6 6 6 6 6 5 4 4 4 4 3 4 4 4 4 5 5 5 5 5 6 4 4 4 4 4 5 4 5 5 7 8 8 8 9 9 9 8 7
13 13 12 11 11 12 10 10 9 11 12 11 10 9 9 8 8 8 8 8 7 7 7 7 8 7 7 7 7 7 6 6 6 6 6 6 5 6 5 6 5 5 5 5 5 6 6 5 5 5 6 8 8 6 5 4 3 3 4 4 4 4 4 4 5 5 6 5 5 4 4 5 5 6 7 7 8 8 9 8 7 7 8 8 8
14 13 12 11 11 11 11 10 10 11 12 11 10 9 9 8 8 9 9 8 7 7 7 7 7 7 8 8 7 6 5 4 7 10 8 6 6 6 5 5 5 5 5 5 6 6 5 4 6 10 8 7 6 5 5 6 5 3 2 3 3 3 3 4 5 5 5 5 5 4 5 5 5 5 6 7 7 8 8 8 8 8 7 8 7
14 13 12 11 11 11 11 12 11 12 12 10 9 9 9 8 8 8 8 8 7 7 7 7 7 8 8 8 7 6 4 5 10 12 12 12 6 5 5 5 5 5 5 5 6 6 5 5 4 5 4 4 2 3 3 3 2 2 1 1 2 2 2 3 3 4 4 4 4 4 4 4 5 4 5 7 7 8 7 7 8 8 8 9 8
14 12 11 12 13 13 12 12 11 11 11 11 10 8 8 8 8 8 7 8 6 6 6 6 6 7 7 8 7 5 6 8 13 12 10 8 6 6 5 5 5 5 5 6 5 5 6 6 4 4 3 4 3 2 2 4 6 6 5 4 2 2 1 1 1 2 3 4 5 4 3 4 5 4 5 5 7 8 8 7 7 8 8 9 7
12 12 12 12 12 11 12 12 11 12 11 12 10 8 9 8 8 8 8 7 6 7 6 6 6 6 7 8 7 7 6 8 13 12 10 9 7 3 5 4 5 5 4 6 6 5 5 5 4 4 3 7 6 5 4 3 6 7 6 5 5 4 6 6 4 2 0 2 3 4 3 3 4 4 4 5 5 6 8 9 8 8 7 9 9
12 12 12 13 12 12 12 12 12 11 11 11 10 10 9 9 8 7 7 7 7 6 5 6 6 6 7 7 7 7 6 8 13 11 10 9 7 6 6 5 5 4 4 4 4 4 4 5 4 4 3 2 3 2 1 2 4 4 4 3 4 6 7 8 7 7 5 2 3 3 3 2 4 4 4 4 5 6 8 9 10 8 9 10 10
11 13 13 14 14 13 14 13 12 12 12 11 11 10 9 8 9 8 7 7 7 6 6 6 6 6 7 6 8 7 6 9 12 11 10 8 6 4 3 5 5 6 6 6 5 5 5 5 4 4 4 4 2 2 2 3 3 3 5 7 6 6 5 5 5 4 4 5 4 4 5 4 5 5 4 4 4 5 6 9 11 7 9 8 7
13 12 12 12 13 12 13 12 11 12 12 11 12 11 9 9 9 7 7 7 6 5 4 5 5 6 6 6 8 7 6 10 12 11 10 8 4 2 5 5 4 5 5 4 4 3 3 4 5 4 5 3 3 3 3 2 4 5 6 2 2 6 7 6 6 3 2 3 3 4 5 6 8 8 8 8 6 7 8 9 8 6 7 7 7
13 13 12 12 12 12 12 12 11 13 12 13 12 11 9 8 8 7 8 7 7 7 5 5 5 5 7 7 9 7 7 8 12 11 10 8 2 2 4 5 4 4 4 4 4 4 2 2 1 5 5 3 3 2 4 3 3 5 4 1 1 1 4 1 4 7 8 10 11 12 12 12 13 15 14 13 9 8 5 7 6 6 6 7 6
13 12 12 12 12 11 12 12 13 13 12 12 12 10 9 7 7 7 8 7 7 7 6 5 5 5 6 8 9 9 7 8 12 12 11 7 2 2 4 4 4 4 5 4 5 5 4 7 5 2 6 4 4 5 5 3 3 5 1 3 2 1 4 4 3 2 8 12 13 14 14 13 13 15 14 13 13 8 3 5 6 5 6 6 6
11 12 13 13 12 12 13 12 13 13 13 12 11 11 10 8 6 6 6 5 6 6 6 5 5 4 4 9 12 10 8 8 11 12 11 7 4 0 3 5 4 4 4 4 4 5 3 5 7 7 6 5 5 4 5 3 3 4 4 4 2 3 3 4 4 5 5 5 6 6 6 9 8 7 8 11 11 8 6 6 4 5 6 6 6
8 5 5 10 12 12 11 12 12 13 13 12 10 10 7 7 8 8 6 5 6 7 7 6 5 4 8 9 6 7 9 7 9 12 11 9 6 0 1 1 6 5 5 5 4 5 4 4 5 9 10 7 4 3 2 2 2 3 4 3 3 2 3 4 4 4 5 5 8 9 5 3 2 1 2 3 3 4 3 3 3 5 5 5 5
9 9 9 9 10 10 10 11 12 11 10 11 10 8 6 8 8 8 6 4 5 5 7 7 8 9 9 9 8 7 7 7 7 9 9 9 7 3 1 2 4 6 5 6 4 5 5 5 5 7 9 8 6 3 2 2 2 2 3 2 1 1 3 3 6 8 5 7 8 3 2 2 2 1 3 3 5 2 2 2 4 4 4 5 6
10 10 11 11 10 10 10 10 8 8 9 8 7 8 7 7 7 8 7 7 9 9 9 8 8 7 7 7 6 6 8 10 7 9 9 9 7 7 3 1 5 2 5 5 4 5 7 6 6 9 11 9 7 4 2 4 4 3 0 2 5 4 3 3 5 5 6 7 3 3 3 2 2 2 3 4 5 4 3 2 3 5 5 5 6
13 11 10 11 9 8 8 10 9 9 10 9 10 9 8 10 9 9 8 8 9 9 8 7 6 5 5 4 5 6 8 8 12 9 10 9 9 7 4 4 5 4 4 2 4 6 8 8 8 12 10 10 8 6 3 3 4 2 2 6 7 7 4 5 4 5 6 8 4 2 3 1 3 2 3 4 7 5 4 3 4 5 5 6 7
11 12 11 9 9 10 9 9 9 10 10 10 9 9 8 9 8 8 8 8 8 8 7 7 6 6 7 6 6 6 7 8 10 13 11 12 9 8 6 7 3 2 3 4 6 6 4 9 10 14 11 10 9 7 5 3 3 6 7 8 8 6 4 4 5 6 8 5 3 1 3 1 2 1 2 4 6 5 4 3 4 5 5 7 8
10 10 10 10 10 10 9 9 9 10 10 10 10 9 9 8 8 7 8 8 8 8 7 7 7 7 7 7 7 6 7 8 8 11 13 11 11 8 9 6 4 3 1 4 6 6 6 11 14 13 11 10 9 5 3 5 8 9 10 11 7 4 5 5 6 7 4 4 3 2 3 1 2 1 3 4 5 4 3 4 4 5 6 7 7
10 10 10 10 12 12 11 10 10 10 10 9 9 8 9 8 7 7 7 7 7 7 8 8 8 7 7 6 7 6 8 7 8 9 9 9 8 8 9 7 4 3 1 0 3 6 10 9 8 7 7 7 5 2 3 4 8 11 11 9 4 5 5 5 5 3 4 5 4 4 3 3 3 4 5 5 4 3 4 5 5 6 6 6 8
10 9 10 10 10 11 11 9 9 9 9 9 8 7 7 8 7 8 7 8 8 8 8 8 8 8 7 7 7 7 8 8 8 8 9 7 7 6 6 5 4 5 2 2 5 4 7 6 6 8 6 9 7 4 3 3 2 4 5 5 6 6 6 6 5 1 3 4 4 4 3 3 3 3 5 5 3 4 5 5 5 6 6 6 6
10 9 10 9 9 10 10 11 12 9 9 8 8 8 7 8 9 9 9 9 9 9 9 8 9 8 7 7 8 8 8 8 9 9 9 9 7 6 5 6 4 4 3 3 4 6 7 6 6 5 3 4 3 3 4 5 5 5 5 6 6 7 8 8 5 3 4 4 6 2 3 4 3 4 6 4 3 5 4 5 4 6 6 6 5
9 10 8 8 8 8 9 10 9 9 9 8 7 8 9 9 7 7 7 6 6 8 8 8 8 8 7 7 8 8 8 9 8 11 11 12 10 8 8 7 6 4 4 4 3 3 5 5 5 5 4 4 4 4 5 5 6 6 7 6 6 7 8 7 6 5 5 5 2 1 4 3 4 4 4 4 4 5 4 6 6 5 7 6 6
9 9 8 7 9 9 9 8 8 8 9 9 8 6 11 11 4 4 5 3 3 3 4 4 6 6 6 6 8 8 7 7 12 20 18 17 16 14 10 10 9 6 6 8 4 3 4 5 5 4 5 4 5 5 6 6 6 7 7 9 8 6 3 3 3 2 3 3 0 2 3 3 4 4 5 4 5 5 6 6 4 5 6 6 5
8 8 8 7 9 9 9 8 8 8 8 8 7 8 6 7 13 11 8 11 10 11 11 10 10 8 3 4 3 3 9 13 16 19 20 19 18 15 13 13 12 11 10 7 4 4 3 3 5 5 6 5 6 6 7 6 6 6 8 7 9 8 5 6 4 1 0 0 1 3 4 2 3 4 5 5 5 5 5 4 4 6 6 5 3
8 8 8 8 10 9 8 8 8 7 7 7 8 8 8 6 5 12 12 12 13 12 11 11 10 11 12 9 5 2 2 8 16 19 19 17 15 13 9 10 12 11 10 13 5 5 4 4 4 5 5 5 8 7 7 7 8 7 4 3 4 4 5 5 5 5 4 2 1 1 2 4 5 6 6 5 5 5 6 6 6 6 7 5 3
8 8 8 9 8 8 8 8 8 7 8 8 7 8 9 9 9 7 8 11 12 12 12 13 12 12 13 13 10 7 7 10 16 17 17 16 15 14 13 12 7 7 10 5 4 4 4 5 5 4 4 4 5 6 6 6 5 3 3 4 5 7 7 4 4 4 2 1 3 5 5 5 5 4 3 4 4 5 6 6 6 6 6 4 4
9 8 8 11 10 8 8 8 8 7 7 8 8 9 8 8 9 8 7 6 7 10 12 12 13 14 13 14 15 15 15 15 16 16 15 15 15 14 13 8 9 7 5 3 3 2 2 3 4 5 5 6 5 6 6 5 4 5 5 6 5 4 4 3 4 4 5 6 5 6 6 4 1 3 5 5 5 5 5 5 6 5 5 4 4
7 7 12 11 8 9 8 8 8 7 7 8 8 8 8 8 9 10 9 8 7 7 6 5 9 10 11 10 14 17 17 16 16 16 16 16 15 14 13 9 5 2 1 0 0 2 3 4 5 5 6 5 5 5 5 5 5 5 4 2 2 0 1 2 3 4 6 6 4 1 1 2 4 4 5 5 6 6 6 6 7 7 6 5 5
7 7 8 9 7 7 7 8 8 8 8 7 5 6 7 7 9 9 8 8 8 8 8 6 4 5 11 12 15 16 18 16 16 16 15 16 16 15 7 5 5 6 6 6 5 3 3 4 4 5 5 6 5 6 6 4 3 2 2 2 2 2 2 3 4 1 3 2 2 1 3 3 4 5 5 5 6 7 6 6 6 5 6 6 5
7 7 7 8 7 6 6 6 6 7 6 5 7 5 5 7 9 8 8 8 8 7 8 7 6 5 5 5 7 11 12 14 13 13 13 13 13 9 6 8 7 7 6 6 6 6 6 6 6 5 5 6 6 6 7 5 4 3 3 3 1 1 1 0 2 2 0 1 1 2 3 4 5 5 5 7 7 6 5 6 6 6 6 6 6
8 7 7 8 7 7 6 6 6 7 7 5 7 6 7 8 8 8 8 9 10 9 9 9 8 9 7 4 4 4 7 8 11 8 6 4 4 4 4 5 6 6 6 7 8 8 8 7 6 5 5 5 6 6 6 6 2 2 1 0 1 3 6 6 4 2 1 1 3 4 5 5 6 6 6 5 5 6 6 6 6 6 6 6 6
7 9 10 10 7 7 6 7 7 7 5 4 3 6 7 7 6 8 8 7 8 7 8 8 7 7 6 6 6 6 9 6 5 6 5 4 5 4 4 4 5 6 6 7 7 8 7 7 7 7 6 6 6 6 6 2 1 2 2 1 0 0 1 1 2 3 3 4 4 5 6 6 5 5 4 5 5 5 5 6 6 6 7 7 7
7 7 9 11 7 6 6 6 6 7 7 6 4 6 7 7 7 8 8 8 8 8 8 7 8 7 7 8 8 8 8 9 7 7 5 5 4 5 5 5 6 5 6 6 6 6 6 6 6 7 8 7 7 6 2 0 1 1 2 2 2 2 1 1 1 2 3 4 4 4 5 6 7 5 4 5 4 4 5 6 6 7 6 5 5
7 7 8 7 5 6 6 6 7 7 8 8 6 7 8 8 8 8 8 8 8 8 7 8 8 7 8 13 15 14 8 8 8 7 7 7 6 6 6 6 5 5 5 5 5 4 3 3 3 3 3 3 1 1 1 1 2 3 3 2 3 3 4 4 4 4 4 5 6 4 3 5 6 5 5 5 6 5 5 5 5 5 6 6 6
7 8 7 7 7 6 6 6 6 8 7 6 6 7 7 8 8 8 8 8 7 8 5 8 8 7 9 15 14 14 7 7 6 6 6 5 6 6 5 4 4 5 5 5 5 4 3 2 3 1 0 0 0 1 1 1 0 1 0 0 1 3 4 4 5 5 4 3 4 5 4 4 4 5 5 5 5 5 5 5 5 5 6 6 6
8 7 7 7 7 6 7 6 7 6 7 6 6 6 7 7 6 7 6 6 8 7 5 6 5 6 9 13 14 14 6 6 6 7 6 6 6 5 6 6 6 6 6 6 5 4 3 4 3 2 1 0 1 1 1 1 0 2 2 1 1 1 2 4 5 5 4 4 4 4 4 5 5 5 5 5 5 5 5 5 5 6 6 6 5
6 4 5 5 5 5 6 5 5 6 6 7 7 7 7 5 5 6 5 6 6 5 5 7 6 7 8 9 12 10 6 6 7 7 7 7 6 6 6 6 6 6 5 6 5 4 4 3 3 1 1 1 1 3 2 2 2 2 3 2 2 5 6 4 4 5 4 4 4 5 5 5 5 6 5 5 5 5 5 5 6 6 6 5 5
5 6 5 4 3 4 5 5 5 6 7 7 6 7 7 6 5 5 6 5 6 4 3 6 7 7 8 8 9 10 8 6 6 6 6 6 7 6 6 5 5 5 5 6 5 4 3 2 2 1 0 2 3 4 3 4 7 8 5 5 5 4 4 4 3 4 5 5 4 4 5 4 4 5 4 4 4 4 4 5 5 6 5 5 5
6 5 5 4 5 6 6 5 5 5 5 6 6 6 6 5 6 6 6 7 6 5 5 5 6 7 8 8 8 8 7 4 4 4 4 5 6 5 5 6 6 4 4 3 2 3 2 2 3 3 3 3 4 3 7 9 7 7 7 7 6 5 4 3 4 4 5 4 4 4 4 4 4 3 5 4 4 5 4 5 4 5 5 5 6
6 6 6 6 5 5 5 6 5 5 5 5 5 5 5 4 6 7 8 7 7 7 7 5 6 7 7 7 7 7 6 5 4 4 4 3 4 5 4 3 3 3 3 4 3 3 4 4 4 4 4 4 4 8 7 6 8 6 7 6 5 5 5 4 4 4 4 4 4 3 4 4 4 5 5 5 4 4 4 4 4 5 5 5 6
5 6 5 5 6 6 6 5 5 5 4 4 4 4 3 4 6 7 6 5 4 4 4 5 6 6 6 6 6 6 5 4 4 4 3 3 3 4 4 4 3 3 3 3 4 4 4 4 4 5 6 7 7 6 7 7 7 7 6 6 6 5 6 6 5 5 3 3 3 4 4 4 4 4 4 4 4 4 4 5 5 5 5 5 6
6 7 7 6 6 6 5 5 5 4 5 6 7 6 5 6 6 6 6 4 4 4 4 5 5 6 5 5 5 5 4 4 4 4 5 5 4 4 5 5 4 4 5 5 5 5 7 7 6 6 6 6 6 7 7 7 6 6 6 5 6 9 9 8 5 5 6 4 3 3 3 4 4 4 4 4 4 5 5 5 5 5 4 5 5
5 6 6 6 6 6 5 5 5 6 6 5 6 6 5 5 5 5 6 5 5 4 5 5 6 6 6 6 6 5 5 5 5 4 4 5 5 5 5 4 5 6 6 5 5 6 7 7 7 6 6 6 7 7 6 6 6 6 5 5 8 9 10 8 7 8 6 3 3 3 3 4 3 3 4 5 5 5 5 4 4 6 5 6 6
6 6 7 7 7 6 6 5 5 6 5 5 5 5 5 5 5 5 5 5 4 5 5 5 5 5 5 5 5 5 5 5 5 5 5 4 4 4 5 5 6 8 8 7 7 7 7 7 6 7 7 7 6 6 6 6 5 5 6 8 9 9 9 8 5 7 8 5 2 3 4 4 4 4 5 5 4 4 6 5 5 4 5 5 5
Wind_Direction
157 160 159 146 138 147 148 145 145 139 142 138 138 136 128 125 130 131 134 138 136 134 137 138 139 136 133 130 128 134 134 132 135 132 124 112 111 122 125 113 104 103 111 107 102 94 87 86 75 52 39 45 62 58 37 48 64 66 42 63 48 46 34 34 24 348 343 339 331 329 347 9 345 350 345 354 349 341 338 350 339 336 352 345 337
162 154 153 145 147 148 138 143 144 139 140 144 141 133 131 132 135 135 147 140 149 147 146 147 142 135 131 130 135 138 141 140 131 120 118 123 124 121 116 120 119 116 99 92 86 77 79 83 86 78 56 62 45 42 13 9 44 59 61 59 61 33 36 45 7 1 335 318 329 328 357 6 353 354 348 351 347 339 339 347 342 347 353 341 339
151 146 146 145 149 146 139 144 144 144 147 147 141 134 131 135 138 150 152 158 160 146 139 131 130 128 123 130 139 143 145 142 128 121 125 131 126 119 119 111 111 112 114 112 105 103 102 108 102 93 93 87 70 44 28 25 14 18 42 55 64 36 17 23 11 350 336 311 323 348 357 358 11 352 348 347 342 336 341 346 340 344 353 346 339
146 148 145 147 145 143 143 145 148 150 146 141 135 132 131 137 148 157 149 155 142 138 134 138 136 134 138 146 150 151 145 132 132 137 139 133 128 123 122 131 137 128 116 115 110 99 103 112 108 96 82 71 68 52 16 31 43 11 15 29 50 27 360 352 352 329 302 320 333 16 353 8 3 352 345 343 343 340 347 340 332 337 347 345 337
145 147 147 144 143 145 147 148 150 150 147 143 138 136 138 145 155 155 152 152 145 143 151 149 145 146 153 158 155 152 142 142 145 143 130 131 132 136 143 139 128 120 112 109 105 104 103 91 93 84 74 74 55 56 42 42 40 28 20 17 36 17 342 332 334 342 321 337 340 13 1 8 2 344 344 347 342 339 343 345 333 330 341 337 324
148 146 147 139 142 147 149 151 151 152 149 145 141 139 141 149 152 152 156 154 146 154 156 154 154 154 160 157 152 146 150 151 147 141 143 138 140 140 127 117 106 102 107 99 97 98 98 87 77 68 63 69 67 56 52 57 40 38 29 22 18 360 343 345 347 347 336 350 29 5 4 4 355 346 347 350 346 338 338 336 329 334 342 334 327
145 148 146 143 146 151 152 156 153 152 150 143 139 142 146 152 156 157 160 149 153 157 158 155 153 158 161 155 152 153 151 147 143 145 143 145 136 122 117 113 120 123 109 106 104 96 81 64 53 48 47 38 37 22 0 13 56 42 28 16 3 0 355 353 349 355 340 17 22 27 355 358 4 343 343 347 344 343 334 331 337 340 340 331 324
143 141 144 149 156 157 160 157 147 151 147 143 141 145 148 154 157 153 149 151 157 160 160 157 155 166 158 153 154 150 144 146 146 146 146 134 131 131 131 133 129 118 111 103 95 82 75 68 63 61 62 47 42 33 16 359 20 47 18 11 6 10 5 351 359 359 344 7 29 15 0 358 350 335 329 341 342 344 346 339 331 334 339 332 322
144 148 148 153 158 157 156 151 143 146 144 142 142 147 149 154 152 146 149 151 157 164 157 155 164 163 150 154 147 144 150 149 151 150 137 138 139 136 137 134 129 123 120 115 104 91 82 80 78 86 88 87 78 66 46 20 33 50 14 15 15 15 6 358 360 4 344 359 15 12 4 360 343 340 341 349 351 343 329 332 325 324 330 328 319
151 150 151 156 154 154 150 144 148 145 144 142 144 144 150 156 152 151 155 154 159 159 157 160 170 154 158 152 147 147 147 146 150 139 135 143 146 145 136 136 137 133 126 119 100 95 97 96 104 103 97 93 90 78 59 49 44 51 35 34 23 23 12 5 5 1 354 350 7 6 5 357 341 349 344 338 332 332 332 335 330 325 326 327 310
155 152 152 154 151 147 150 156 148 148 143 139 139 147 154 152 149 153 150 154 160 153 156 168 164 159 159 151 147 151 111 96 124 133 142 147 146 137 142 142 139 127 119 112 111 118 122 120 120 117 114 109 96 107 133 161 114 106 114 40 20 48 31 17 4 358 6 347 343 7 10 355 336 341 344 330 331 332 330 330 324 325 334 334 333
153 151 152 156 156 152 149 146 141 142 143 142 147 150 148 150 151 152 148 155 155 149 159 168 157 159 154 147 152 113 109 116 108 102 91 84 109 143 145 145 133 130 129 125 136 140 143 149 147 148 159 168 148 179 230 223 210 215 217 215 204 277 269 104 11 360 9 353 333 352 14 352 321 334 325 331 325 329 333 330 325 323 327 329 322
148 151 155 156 157 155 151 148 143 145 146 147 152 152 152 154 152 148 152 153 144 154 166 159 160 158 149 153 133 115 124 124 109 100 84 80 52 96 147 130 126 140 142 146 150 154 156 146 136 149 139 168 174 179 194 225 243 234 219 235 259 242 256 256 221 206 250 308 325 323 358 330 317 308 308 309 316 323 329 327 327 319 323 320 319
154 154 155 155 152 155 155 153 149 148 147 149 150 155 155 155 147 148 147 145 150 159 164 158 161 157 155 153 124 130 126 132 114 103 94 78 58 32 137 146 150 134 131 126 126 138 144 141 143 137 150 134 56 28 304 231 218 224 235 224 227 240 246 252 246 235 225 232 266 279 293 301 292 282 286 301 320 321 323 319 315 318 326 320 308
157 156 159 157 156 156 157 157 154 150 151 151 154 157 160 153 154 157 154 155 159 163 165 164 164 160 157 149 123 137 138 139 122 113 99 83 56 2 139 104 124 136 137 138 150 155 169 163 145 138 119 84 57 30 355 337 311 255 218 221 219 222 203 218 231 216 194 212 230 270 273 274 272 283 296 304 312 303 302 300 303 311 315 307 318
153 158 161 157 160 160 160 157 156 154 153 155 159 163 166 157 161 153 152 154 163 155 159 162 163 164 160 141 124 136 146 150 132 125 116 102 73 62 132 145 132 117 125 123 118 101 93 112 124 123 118 103 108 69 47 339 311 301 282 210 188 175 192 200 171 191 203 227 229 242 266 271 281 285 293 295 296 292 300 305 299 317 324 333 330
158 162 161 160 161 167 161 153 155 152 154 157 162 162 162 155 160 150 153 163 163 157 156 162 166 167 162 134 130 138 152 168 144 139 134 120 105 146 117 124 125 131 128 132 129 123 96 55 80 134 122 127 114 88 29 351 292 279 269 336 232 114 107 156 210 217 227 241 250 260 264 270 274 278 280 277 272 269 310 303 303 330 332 329 321
160 157 158 157 159 165 162 160 156 155 157 162 162 159 157 162 162 147 160 163 161 164 150 163 172 173 169 128 139 146 160 175 158 152 142 149 153 157 137 134 145 147 155 152 131 114 99 94 37 119 129 130 131 78 13 346 293 286 340 327 323 60 47 11 355 285 240 250 261 261 260 264 270 275 280 279 276 271 214 275 303 338 327 315 320
155 156 159 158 153 163 168 162 158 157 162 165 162 160 160 162 154 144 161 160 152 152 160 164 175 170 156 119 138 145 160 175 175 162 157 154 174 252 139 154 158 147 160 157 150 121 124 90 82 78 105 124 104 82 33 355 304 320 346 307 328 58 13 360 333 329 326 324 306 285 261 256 256 259 259 257 251 249 226 256 312 332 313 313 319
156 146 135 129 157 168 159 158 159 162 162 158 158 157 154 148 151 156 162 159 154 162 168 161 168 114 88 115 123 148 160 174 185 176 165 165 184 157 27 215 164 165 160 184 163 133 152 135 119 122 123 128 105 91 43 28 321 327 323 358 22 2 348 335 305 299 302 291 286 275 275 280 250 213 44 355 261 216 265 302 302 301 300 308 316
163 168 160 153 158 158 155 155 155 158 158 155 151 144 141 142 144 153 158 160 145 139 125 105 100 115 130 128 138 150 159 174 189 189 183 186 175 151 192 277 186 164 184 185 176 154 166 169 159 151 145 142 140 151 298 316 304 297 339 38 28 280 332 312 308 321 300 292 266 292 313 326 317 33 31 316 298 287 297 291 303 293 292 299 303
155 158 156 157 152 149 149 146 142 133 128 134 137 142 141 126 120 98 96 112 114 110 108 117 124 121 122 137 154 151 160 169 177 196 203 201 179 196 202 26 30 267 195 183 196 177 169 176 161 167 156 156 158 171 228 288 309 297 350 256 293 354 324 305 296 294 292 279 299 310 305 317 346 15 1 320 312 314 288 292 299 298 285 276 271
160 157 153 154 148 136 129 133 142 143 145 139 131 118 112 114 121 122 122 120 122 126 127 128 132 130 137 157 169 162 162 169 178 187 206 210 201 208 210 269 19 340 353 261 214 202 180 154 150 156 159 156 165 176 215 272 295 273 320 324 318 317 312 281 280 282 282 273 277 301 293 343 355 340 5 323 301 298 293 287 298 298 294 291 290
145 151 152 140 130 138 142 138 140 145 139 131 121 118 123 122 126 131 138 136 137 139 147 149 159 165 171 178 178 169 161 172 180 186 198 208 210 198 210 235 235 334 350 31 20 349 121 141 150 157 161 165 164 176 210 229 263 294 303 294 299 307 291 287 272 266 260 278 282 331 306 345 334 328 339 295 286 289 296 302 312 306 296 299 294
140 138 138 138 134 132 134 143 149 145 140 138 129 130 132 132 133 145 152 149 149 154 162 170 180 183 180 181 176 170 161 171 175 191 198 206 206 194 211 219 203 111 348 55 16 23 55 116 138 151 159 166 165 164 206 250 253 262 269 271 280 285 279 275 273 265 301 301 316 319 291 349 320 288 300 287 285 296 325 320 321 310 310 306 303
144 144 142 144 146 147 147 146 144 138 134 135 135 140 144 148 150 156 163 161 166 169 174 181 186 185 185 182 180 171 163 164 171 182 196 204 204 199 211 225 207 127 331 63 102 73 88 121 133 149 153 153 150 168 206 224 234 240 252 260 263 260 263 263 267 352 318 317 309 298 301 343 332 320 290 289 299 317 339 324 328 320 318 313 315
151 149 147 147 148 149 145 146 142 137 132 141 149 161 166 173 170 169 174 178 179 184 183 182 186 185 183 186 178 176 165 168 163 172 184 190 202 187 198 244 199 161 210 197 148 158 140 155 173 183 178 179 185 198 242 285 273 237 236 245 243 244 244 251 238 224 282 286 296 307 335 312 306 322 323 310 324 348 354 320 314 304 305 302 304
152 148 146 149 148 146 142 140 141 146 148 147 153 161 166 174 176 176 179 182 183 183 186 184 189 188 183 182 180 181 181 176 168 172 177 182 186 182 187 213 213 193 194 200 191 164 163 186 186 195 156 168 198 220 234 231 233 236 236 234 234 234 238 244 207 204 222 247 267 299 336 324 327 326 301 316 346 349 333 315 306 302 302 303 311
143 134 134 142 144 141 141 151 152 150 152 154 160 165 176 183 173 177 185 185 188 182 182 181 186 193 184 184 184 188 188 190 183 162 170 172 172 186 188 197 203 200 196 197 211 183 155 168 190 196 197 196 205 216 215 217 220 221 231 238 238 228 225 220 221 231 243 249 247 10 300 295 316 302 306 324 343 323 310 307 300 303 304 301 299
147 145 143 142 146 144 149 154 155 155 156 158 143 76 37 53 46 165 173 154 135 125 146 175 181 187 188 186 192 193 194 185 158 154 166 169 178 181 180 179 187 196 187 200 223 243 206 194 196 190 205 206 214 220 224 219 218 220 223 225 233 244 240 252 242 217 175 152 124 287 273 295 294 307 323 317 308 304 297 291 299 309 303 308 328
154 152 152 154 153 151 155 158 162 161 159 159 137 133 120 60 42 37 102 106 99 87 84 78 78 86 138 203 110 101 162 155 155 160 165 169 172 179 178 178 182 197 190 172 222 238 270 240 214 206 199 213 214 216 224 231 235 226 225 205 201 216 221 223 235 275 323 150 235 245 255 261 298 294 286 283 287 292 298 306 316 303 296 300 338
159 157 161 152 152 155 159 154 152 158 160 162 144 151 138 134 67 37 51 92 91 91 89 83 78 83 84 91 112 37 337 176 157 159 159 157 158 157 158 169 186 186 198 174 186 219 234 254 238 222 220 215 219 221 221 224 228 227 232 263 260 232 207 215 203 208 225 198 240 284 294 279 259 263 273 278 290 294 299 300 292 291 291 306 334
157 159 155 145 153 155 159 161 162 164 163 163 155 153 158 152 124 107 49 53 76 87 86 80 77 79 82 76 74 102 127 129 137 137 136 132 121 113 103 95 100 142 143 164 189 202 232 258 270 270 252 256 238 229 224 233 237 241 236 207 211 231 229 217 178 179 157 211 259 260 245 256 267 262 272 297 305 295 290 288 285 287 292 306 317
158 155 150 153 159 162 166 167 166 169 169 174 169 170 164 145 154 139 130 122 72 54 54 74 90 85 77 92 95 93 91 95 98 99 104 107 110 105 99 90 77 40 77 167 175 237 280 275 270 264 264 258 252 249 252 234 216 213 230 242 239 230 217 206 179 179 189 209 220 238 250 237 249 334 309 284 274 270 277 275 278 283 290 290 293
160 144 150 156 160 162 166 167 168 170 175 182 182 172 159 169 151 149 154 149 139 122 121 63 37 79 102 95 101 102 103 102 104 107 108 109 111 117 112 110 108 168 120 325 346 261 260 276 282 284 283 288 287 278 251 234 221 218 218 229 266 305 346 322 272 225 205 209 205 192 163 339 324 285 267 272 274 280 270 269 271 270 272 279 284
151 141 152 158 158 166 169 172 177 176 177 174 176 166 169 149 143 157 150 142 137 139 119 94 96 87 107 116 119 120 121 123 127 128 133 137 141 134 128 153 152 168 165 184 185 209 251 256 259 261 269 275 281 286 284 279 256 220 208 207 231 237 230 242 253 297 9 63 74 348 352 323 291 281 278 286 281 276 270 261 256 259 265 272 270
133 143 153 164 161 164 167 167 167 158 161 155 162 162 148 136 150 151 150 149 147 153 129 127 122 85 50 49 83 95 105 119 132 143 153 157 161 160 168 170 173 171 182 187 188 197 211 233 248 271 283 292 298 299 302 293 281 250 223 213 191 252 280 217 125 142 176 274 289 311 285 279 276 278 286 280 273 266 277 290 291 287 281 276 277
132 146 156 162 158 158 158 153 157 150 172 176 169 157 142 149 153 151 152 159 159 162 148 150 146 144 147 150 159 129 109 97 95 85 90 121 162 182 180 181 178 180 190 200 195 195 200 205 212 226 248 261 272 277 282 289 303 359 18 304 252 241 247 249 216 188 184 241 291 292 287 281 284 275 260 261 284 300 297 300 308 310 306 304 302
135 127 126 128 142 153 150 154 152 172 170 163 128 131 142 134 125 136 146 137 140 135 138 149 156 165 160 154 139 135 123 138 158 162 164 176 183 190 192 202 202 202 204 205 200 196 198 197 200 209 220 234 244 257 262 263 356 2 358 30 346 12 17 350 339 336 326 296 278 267 258 254 254 271 295 308 299 305 321 322 318 314 306 302 297
121 132 139 142 149 142 151 146 140 111 87 86 114 124 109 123 130 135 141 140 141 147 152 159 170 184 158 159 157 167 166 164 165 161 165 174 187 198 203 209 214 217 217 217 212 202 193 197 197 205 210 217 230 229 204 63 33 341 338 14 49 27 327 319 293 296 282 268 266 273 278 283 290 296 307 312 318 330 324 317 305 296 295 302 314
133 138 149 155 137 136 130 125 126 128 140 145 140 140 140 137 136 137 138 144 152 159 175 171 178 182 166 174 176 174 165 168 168 171 175 176 181 192 204 213 218 232 243 235 233 227 223 221 238 239 228 219 185 113 40 29 22 38 54 47 32 8 344 332 324 312 303 295 287 303 335 360 1 3 341 323 324 321 310 304 310 324 333 334 337
132 144 153 153 150 141 137 126 127 136 145 141 135 138 137 145 152 160 156 166 165 177 191 152 169 159 161 165 172 182 177 175 176 169 168 176 186 199 205 213 221 229 239 241 241 240 248 255 251 229 167 262 42 18 23 334 191 152 135 58 337 328 327 300 286 283 298 332 22 32 5 347 342 335 320 314 318 319 326 335 335 336 345 356 354
137 151 151 149 153 146 147 142 149 153 152 154 142 142 148 147 148 153 157 154 163 184 149 143 182 149 160 169 175 187 200 179 178 175 173 182 189 190 195 207 211 217 225 230 235 226 228 234 225 204 206 166 304 307 251 255 143 87 69 55 8 315 339 12 23 28 19 21 13 360 1 350 345 339 337 337 336 346 341 351 359 4 354 342 338
106 107 118 123 121 118 136 137 128 132 152 138 126 130 143 147 142 155 136 142 161 171 166 157 140 126 146 164 169 185 209 186 178 189 184 175 178 188 197 203 208 212 214 222 233 234 228 204 205 219 228 276 39 77 91 86 69 38 9 350 13 54 53 43 34 16 10 6 360 7 2 356 354 350 350 349 360 2 2 5 354 349 338 332 337
101 108 116 111 75 81 87 92 114 117 116 122 134 139 147 151 159 151 161 155 143 153 125 145 137 137 144 158 173 187 201 207 171 171 170 164 178 189 193 195 203 210 209 213 212 208 182 162 170 165 78 54 57 49 38 23 41 51 53 58 64 57 48 38 1 356 19 29 17 4 358 357 355 342 357 11 11 4 351 351 342 331 335 343 346
98 99 97 101 106 107 105 110 111 117 127 131 139 153 163 178 169 152 125 126 151 171 168 172 152 149 153 163 173 184 197 193 160 174 171 167 169 178 185 191 191 197 195 182 175 163 153 121 106 98 89 68 50 25 43 62 58 51 51 57 57 56 28 1 356 36 29 20 10 352 347 349 326 325 36 13 5 356 352 336 337 347 351 346 346
105 111 111 113 107 104 99 116 127 143 146 144 156 165 176 164 136 122 131 160 177 197 188 167 131 145 152 158 163 175 186 174 165 163 164 151 151 154 159 152 159 167 175 180 165 116 95 96 98 96 75 53 44 63 70 67 68 62 55 50 47 32 17 346 20 34 17 355 349 352 338 321 357 14 19 12 357 349 340 341 356 354 358 346 330
125 122 122 122 125 122 128 126 134 147 149 153 125 101 83 95 123 131 136 151 156 146 131 121 135 142 147 152 157 164 169 171 162 156 156 160 147 150 161 176 186 191 171 110 91 97 94 84 77 70 64 60 60 65 66 68 65 62 57 49 42 25 12 7 30 20 5 341 343 342 338 16 29 13 10 1 342 348 4 3 0 358 338 326 324
139 136 139 140 132 125 122 120 116 105 100 98 100 102 109 118 116 118 127 132 139 144 136 144 137 136 138 149 154 158 156 152 152 154 166 175 185 189 188 188 187 157 118 101 87 71 70 66 65 63 64 63 65 66 63 64 60 60 54 46 26 25 25 25 29 11 347 344 354 341 357 35 18 9 350 343 5 19 12 9 356 334 327 337 338
123 129 126 122 124 123 122 122 114 110 111 116 117 122 119 118 123 128 136 149 159 156 152 145 148 149 145 144 151 150 152 160 166 171 179 184 181 181 179 157 134 110 98 90 88 82 76 72 71 68 68 67 67 66 64 61 58 52 50 35 25 28 25 16 22 13 6 358 343 336 357 22 6 3 355 22 20 20 14 351 343 348 347 337 325
143 143 142 146 138 141 144 148 145 141 144 139 141 143 144 141 143 145 147 147 150 146 143 141 138 141 148 156 158 162 162 168 174 180 184 186 183 148 120 116 99 90 93 97 92 89 86 82 78 77 76 75 72 70 66 64 59 55 43 34 32 25 22 19 7 352 355 351 339 338 12 20 20 20 31 31 12 10 357 350 354 346 327 310 309